Granada, Spain

5:20 AM CEST on June 27, 2017 (GMT +0200)
Granada

Weather History for LEGR - April, 2013

Change the Weather History Date:

Monday, April 1, 2013

  Actual Average Record
Temperature  
Mean Temperature 56 °F -  
Max Temperature 62 °F 68 °F 86 °F (2015)
Min Temperature 50 °F 43 °F 34 °F (2016)
Degree Days  
Heating Degree Days 9    
Growing Degree Days 6 (Base 50)    
Moisture  
Dew Point 47 °F    
Average Humidity 75    
Maximum Humidity 94    
Minimum Humidity 43    
Precipitation  
Precipitation 0.01 in - - ()
Sea Level Pressure  
Sea Level Pressure 29.80 in    
Wind  
Wind Speed 11 mph ()    
Max Wind Speed 20 mph    
Max Gust Speed 30 mph    
Visibility 7.2 miles    
Events Rain    
Averages and records for this station are not official NWS values.
T = Trace of Precipitation, MM = Missing Value Source: Averaged Metar Reports

Daily Weather History Graph

Daily Weather History Graph

Search for Another Location

Airport or City:

Trip Planner

Search our weather history database for the weather conditions in past years. The results will help you decide how hot, cold, wet, or windy it might be!

Date:

Astronomy

Apr. 01, 2013 Rise Set
Actual Time 8:00 AM CEST 8:37 PM CEST
Civil Twilight 7:34 AM CEST 9:03 PM CEST
Nautical Twilight 7:03 AM CEST 9:34 PM CEST
Astronomical Twilight 6:32 AM CEST 10:06 PM CEST
Moon 1:25 AM CEST (4/1) 11:38 AM CEST (4/1)
Length of Visible Light 13h 29m
Length of Day
12h 36m
Waning Gibbous, 70% of the Moon is Illuminated
Apr 1
Waning Gibbous
Apr 3
Last Quarter
Apr 10
New
Apr 18
First Quarter
Apr 25
Full

Hourly Weather History & Observations

Time (CEST) Temp. Dew Point Humidity Pressure Visibility Wind Dir Wind Speed Gust Speed Precip Events Conditions
2:00 AM 56 °F 49 °F 70% 29.68 in 16 mi SSW 6.9 mph - - Rain Light Rain
6:00 AM 53.6 °F 51.8 °F 94% 29.71 in 6.2 mi WSW 8.1 mph - N/A Rain Light Rain
6:30 AM 53.6 °F 51.8 °F 94% 29.71 in 6.2 mi West 12.7 mph - N/A Rain Light Rain
7:00 AM 51.8 °F 50.0 °F 94% 29.71 in 6.2 mi West 10.4 mph - N/A Rain Light Rain
7:30 AM 51.8 °F 50.0 °F 94% 29.74 in 6.2 mi WSW 9.2 mph - N/A   Mostly Cloudy
8:00 AM 51 °F 47 °F 83% 29.74 in 14 mi West 15.0 mph - -   Clear
8:00 AM 51.8 °F 50.0 °F 94% 29.74 in 6.2 mi West 15.0 mph - N/A   Scattered Clouds
8:30 AM 51.8 °F 48.2 °F 88% 29.74 in 6.2 mi West 15.0 mph - N/A   Scattered Clouds
9:00 AM 51.8 °F 48.2 °F 88% 29.77 in 6.2 mi West 13.8 mph - N/A   Partly Cloudy
9:30 AM 53.6 °F 48.2 °F 82% 29.77 in 6.2 mi West 16.1 mph - N/A   Scattered Clouds
10:00 AM 53.6 °F 50.0 °F 88% 29.77 in 5.0 mi West 17.3 mph - N/A Rain Light Rain
10:30 AM 53.6 °F 48.2 °F 82% 29.77 in 6.2 mi West 15.0 mph - N/A   Partly Cloudy
11:00 AM 55.4 °F 44.6 °F 67% 29.80 in 6.2 mi WNW 16.1 mph - N/A   Partly Cloudy
11:30 AM 55.4 °F 46.4 °F 72% 29.80 in 6.2 mi West 13.8 mph - N/A   Partly Cloudy
12:30 PM 57.2 °F 46.4 °F 67% 29.80 in 6.2 mi WNW 15.0 mph - N/A   Partly Cloudy
1:00 PM 57.2 °F 46.4 °F 67% 29.80 in 6.2 mi West 15.0 mph - N/A   Partly Cloudy
1:30 PM 59.0 °F 44.6 °F 59% 29.80 in 6.2 mi West 16.1 mph - N/A   Partly Cloudy
2:00 PM 60 °F 43 °F 43% 29.78 in 16 mi West 17.3 mph - -   Scattered Clouds
2:00 PM 59.0 °F 48.2 °F 67% 29.80 in 6.2 mi West 16.1 mph 27.6 mph N/A   Partly Cloudy
2:30 PM 59.0 °F 44.6 °F 59% 29.80 in 6.2 mi West 18.4 mph 29.9 mph N/A   Partly Cloudy
3:00 PM 59.0 °F 44.6 °F 59% 29.83 in 6.2 mi West 19.6 mph - N/A   Partly Cloudy
3:30 PM 60.8 °F 46.4 °F 59% 29.80 in 6.2 mi WNW 16.1 mph - N/A   Scattered Clouds
4:00 PM 60.8 °F 44.6 °F 55% 29.80 in 6.2 mi West 15.0 mph - N/A   Scattered Clouds
4:30 PM 62.6 °F 48.2 °F 59% 29.80 in 6.2 mi WNW 13.8 mph - N/A   Scattered Clouds
5:00 PM 60.8 °F 42.8 °F 52% 29.80 in 6.2 mi West 19.6 mph - N/A   Scattered Clouds
5:30 PM 57.2 °F 44.6 °F 63% 29.80 in 6.2 mi WNW 16.1 mph - N/A   Scattered Clouds
6:30 PM 51.8 °F 44.6 °F 76% 29.86 in 6.2 mi West 17.3 mph 29.9 mph N/A   Mostly Cloudy
7:00 PM 51.8 °F 46.4 °F 82% 29.86 in 6.2 mi West 15.0 mph - N/A   Mostly Cloudy
7:30 PM 51.8 °F 44.6 °F 76% 29.86 in 6.2 mi West 11.5 mph - N/A   Scattered Clouds
8:00 PM 53 °F 43 °F 59% 29.87 in 16 mi West 11.5 mph - -   Scattered Clouds
8:00 PM 51.8 °F 44.6 °F 76% 29.86 in 6.2 mi West 11.5 mph - N/A   Scattered Clouds
8:30 PM 50.0 °F 46.4 °F 87% 29.89 in 6.2 mi WNW 3.5 mph - N/A   Scattered Clouds
9:00 PM 50.0 °F 46.4 °F 87% 29.89 in 6.2 mi Calm Calm - N/A   Scattered Clouds
9:30 PM 51.8 °F 46.4 °F 82% 29.89 in 6.2 mi Variable 2.3 mph - N/A   Mostly Cloudy
10:00 PM 51.8 °F 46.4 °F 82% 29.89 in 6.2 mi Variable 2.3 mph - N/A   Mostly Cloudy
10:30 PM 51.8 °F 46.4 °F 82% 29.89 in 6.2 mi Variable 2.3 mph - N/A   Scattered Clouds
11:00 PM 50.0 °F 46.4 °F 87% 29.89 in 6.2 mi West 5.8 mph - N/A   Partly Cloudy